Data supplied by UK-AIR on 17/6/2020
All Data GMT hour ending 
Status: R =Ratified P=Provisional,P*=As supplied
,,Exeter Roadside,,,,,,,,,,,,,,,,,,,,,,,
Date,time,"Nitric oxide",status,unit,"Nitrogen dioxide",status,unit,"Nitrogen oxides as nitrogen dioxide",status,unit,"Ozone",status,unit
 
01-01-2019,01:00,5.83639,R,ugm-3,13.66861,R,ugm-3,22.61761,R,ugm-3,58.07389,R,ugm-3
01-01-2019,02:00,6.08607,R,ugm-3,12.32739,R,ugm-3,21.65924,R,ugm-3,59.59358,R,ugm-3
01-01-2019,03:00,5.93002,R,ugm-3,13.28545,R,ugm-3,22.37802,R,ugm-3,59.10510,R,ugm-3
01-01-2019,04:00,18.28942,R,ugm-3,13.74169,R,ugm-3,41.78508,R,ugm-3,62.90433,R,ugm-3
01-01-2019,05:00,5.46186,R,ugm-3,9.16350,R,ugm-3,17.53823,R,ugm-3,62.95861,R,ugm-3
01-01-2019,06:00,1.84143,R,ugm-3,6.04147,R,ugm-3,8.86495,R,ugm-3,61.71029,R,ugm-3
01-01-2019,07:00,2.43443,R,ugm-3,7.24064,R,ugm-3,10.97337,R,ugm-3,60.40770,R,ugm-3
01-01-2019,08:00,1.46690,R,ugm-3,7.47828,R,ugm-3,9.72749,R,ugm-3,59.86495,R,ugm-3
01-01-2019,09:00,3.93254,R,ugm-3,16.92323,R,ugm-3,22.95304,R,ugm-3,48.79292,R,ugm-3
01-01-2019,10:00,4.58796,R,ugm-3,18.64963,R,ugm-3,25.68441,R,ugm-3,45.04797,R,ugm-3
01-01-2019,11:00,19.91237,R,ugm-3,28.59976,R,ugm-3,59.13164,R,ugm-3,42.98553,R,ugm-3
01-01-2019,12:00,10.95493,R,ugm-3,18.66249,R,ugm-3,35.45981,R,ugm-3,46.35056,R,ugm-3
01-01-2019,13:00,12.70272,R,ugm-3,17.37222,R,ugm-3,36.84946,R,ugm-3,47.05613,R,ugm-3
01-01-2019,14:00,9.83135,R,ugm-3,16.98307,R,ugm-3,32.05759,R,ugm-3,49.44422,R,ugm-3
01-01-2019,15:00,15.63652,R,ugm-3,24.94930,R,ugm-3,48.92496,R,ugm-3,43.58255,R,ugm-3
01-01-2019,16:00,9.89377,R,ugm-3,23.30846,R,ugm-3,38.47869,R,ugm-3,43.31118,R,ugm-3
01-01-2019,17:00,13.07725,R,ugm-3,27.43590,R,ugm-3,47.48740,R,ugm-3,38.42646,R,ugm-3
01-01-2019,18:00,16.51042,R,ugm-3,32.52221,R,ugm-3,57.83783,R,ugm-3,34.51868,R,ugm-3
01-01-2019,19:00,15.07473,R,ugm-3,30.17130,R,ugm-3,53.28556,R,ugm-3,33.75884,R,ugm-3
01-01-2019,20:00,14.41931,R,ugm-3,27.63029,R,ugm-3,49.73958,R,ugm-3,30.55663,R,ugm-3
01-01-2019,21:00,13.10846,R,ugm-3,25.13587,R,ugm-3,45.23522,R,ugm-3,28.11427,R,ugm-3
01-01-2019,22:00,12.79635,R,ugm-3,18.33079,R,ugm-3,37.95159,R,ugm-3,31.96778,R,ugm-3
01-01-2019,23:00,4.08859,R,ugm-3,13.09006,R,ugm-3,19.35914,R,ugm-3,48.79292,R,ugm-3
01-01-2019,24:00,2.68411,R,ugm-3,11.41007,R,ugm-3,15.52565,R,ugm-3,54.60031,R,ugm-3
02-01-2019,01:00,0.81114,R,ugm-3,5.84331,R,ugm-3,7.08704,R,ugm-3,57.71659,R,ugm-3
02-01-2019,02:00,0.56156,R,ugm-3,5.69926,R,ugm-3,6.56030,R,ugm-3,52.67181,R,ugm-3
02-01-2019,03:00,0.59276,R,ugm-3,5.65142,R,ugm-3,6.56030,R,ugm-3,48.27797,R,ugm-3
02-01-2019,04:00,0.74874,R,ugm-3,6.13052,R,ugm-3,7.27858,R,ugm-3,44.04687,R,ugm-3
02-01-2019,05:00,0.12479,R,ugm-3,5.74645,R,ugm-3,5.93779,R,ugm-3,46.97609,R,ugm-3
02-01-2019,06:00,4.27408,R,ugm-3,10.30217,R,ugm-3,16.85567,R,ugm-3,52.45483,R,ugm-3
02-01-2019,07:00,31.50965,R,ugm-3,29.06872,R,ugm-3,77.38283,R,ugm-3,42.25679,R,ugm-3
02-01-2019,08:00,31.01048,R,ugm-3,40.17734,R,ugm-3,87.72608,R,ugm-3,29.94319,R,ugm-3
02-01-2019,09:00,47.98202,R,ugm-3,51.98416,R,ugm-3,125.55556,R,ugm-3,25.44086,R,ugm-3
02-01-2019,10:00,55.34467,R,ugm-3,50.27201,R,ugm-3,135.13264,R,ugm-3,27.33944,R,ugm-3
02-01-2019,11:00,66.98140,R,ugm-3,54.79176,R,ugm-3,157.49513,R,ugm-3,28.15311,R,ugm-3
02-01-2019,12:00,,,,,,,,,,19.20270,R,ugm-3
02-01-2019,13:00,82.11227,R,ugm-3,66.30834,R,ugm-3,192.21206,R,ugm-3,25.27813,R,ugm-3
02-01-2019,14:00,73.72009,R,ugm-3,54.85037,R,ugm-3,167.88627,R,ugm-3,36.18136,R,ugm-3
02-01-2019,15:00,32.63276,R,ugm-3,38.98278,R,ugm-3,89.01899,R,ugm-3,44.26385,R,ugm-3
02-01-2019,16:00,47.13968,R,ugm-3,56.57982,R,ugm-3,128.85965,R,ugm-3,29.72621,R,ugm-3
02-01-2019,17:00,102.26596,R,ugm-3,81.47221,R,ugm-3,238.27783,R,ugm-3,12.63907,R,ugm-3
02-01-2019,18:00,90.16127,R,ugm-3,79.34598,R,ugm-3,217.59133,R,ugm-3,8.19098,R,ugm-3
02-01-2019,19:00,41.99206,R,ugm-3,62.50942,R,ugm-3,126.89635,R,ugm-3,17.46686,R,ugm-3
02-01-2019,20:00,47.82603,R,ugm-3,67.73821,R,ugm-3,141.07043,R,ugm-3,12.04237,R,ugm-3
02-01-2019,21:00,65.60870,R,ugm-3,64.55820,R,ugm-3,165.15680,R,ugm-3,4.28535,R,ugm-3
02-01-2019,22:00,47.76363,R,ugm-3,61.99187,R,ugm-3,135.22841,R,ugm-3,4.77355,R,ugm-3
02-01-2019,23:00,43.30237,R,ugm-3,57.48354,R,ugm-3,123.87957,R,ugm-3,10.46927,R,ugm-3
02-01-2019,24:00,19.99771,R,ugm-3,40.78232,R,ugm-3,71.44504,R,ugm-3,11.17445,R,ugm-3
03-01-2019,01:00,6.01865,R,ugm-3,33.98203,R,ugm-3,43.21050,R,ugm-3,12.84900,R,ugm-3
03-01-2019,02:00,2.15175,R,ugm-3,24.11999,R,ugm-3,27.41929,R,ugm-3,22.93302,R,ugm-3
03-01-2019,03:00,1.12265,R,ugm-3,18.47224,R,ugm-3,20.19361,R,ugm-3,26.02328,R,ugm-3
03-01-2019,04:00,0.34303,R,ugm-3,15.69591,R,ugm-3,16.22188,R,ugm-3,24.99319,R,ugm-3
03-01-2019,05:00,3.92927,R,ugm-3,23.30857,R,ugm-3,29.33338,R,ugm-3,20.81862,R,ugm-3
03-01-2019,06:00,19.14742,R,ugm-3,32.99240,R,ugm-3,62.35137,R,ugm-3,9.54187,R,ugm-3
03-01-2019,07:00,40.54014,R,ugm-3,44.78891,R,ugm-3,106.94958,R,ugm-3,6.18053,R,ugm-3
03-01-2019,08:00,96.36079,R,ugm-3,57.15181,R,ugm-3,204.90296,R,ugm-3,2.65654,R,ugm-3
03-01-2019,09:00,128.91764,R,ugm-3,56.42403,R,ugm-3,254.09499,R,ugm-3,3.25291,R,ugm-3
03-01-2019,10:00,129.85318,R,ugm-3,69.01024,R,ugm-3,268.11567,R,ugm-3,2.65654,R,ugm-3
03-01-2019,11:00,119.37511,R,ugm-3,66.89256,R,ugm-3,249.93185,R,ugm-3,4.06614,R,ugm-3
03-01-2019,12:00,128.41868,R,ugm-3,62.54853,R,ugm-3,259.45443,R,ugm-3,5.47573,R,ugm-3
03-01-2019,13:00,91.93256,R,ugm-3,65.32938,R,ugm-3,206.29068,R,ugm-3,14.15016,R,ugm-3
03-01-2019,14:00,95.73710,R,ugm-3,70.16688,R,ugm-3,216.96171,R,ugm-3,14.69231,R,ugm-3
03-01-2019,15:00,89.21949,R,ugm-3,60.25390,R,ugm-3,197.05521,R,ugm-3,15.72240,R,ugm-3
03-01-2019,16:00,102.94077,R,ugm-3,75.58255,R,ugm-3,233.42285,R,ugm-3,8.83707,R,ugm-3
03-01-2019,17:00,135.46643,R,ugm-3,77.53445,R,ugm-3,285.24674,R,ugm-3,3.09026,R,ugm-3
03-01-2019,18:00,176.81737,R,ugm-3,77.58252,R,ugm-3,348.69871,R,ugm-3,3.30712,R,ugm-3
03-01-2019,19:00,125.92391,R,ugm-3,60.82295,R,ugm-3,253.90358,R,ugm-3,3.36134,R,ugm-3
03-01-2019,20:00,79.11564,R,ugm-3,51.00669,R,ugm-3,172.31564,R,ugm-3,2.81919,R,ugm-3
03-01-2019,21:00,63.77276,R,ugm-3,52.08945,R,ugm-3,149.87298,R,ugm-3,3.19869,R,ugm-3
03-01-2019,22:00,51.51716,R,ugm-3,55.08988,R,ugm-3,134.08176,R,ugm-3,3.36134,R,ugm-3
03-01-2019,23:00,34.42793,R,ugm-3,43.29838,R,ugm-3,96.08714,R,ugm-3,6.56004,R,ugm-3
03-01-2019,24:00,14.25142,R,ugm-3,36.81488,R,ugm-3,58.66675,R,ugm-3,6.45161,R,ugm-3
04-01-2019,01:00,7.38771,R,ugm-3,33.52647,R,ugm-3,44.85414,R,ugm-3,10.56616,R,ugm-3
04-01-2019,02:00,7.04482,R,ugm-3,35.00861,R,ugm-3,45.81052,R,ugm-3,8.01944,R,ugm-3
04-01-2019,03:00,2.99249,R,ugm-3,23.57692,R,ugm-3,28.16534,R,ugm-3,16.90585,R,ugm-3
04-01-2019,04:00,0.99750,R,ugm-3,16.35480,R,ugm-3,17.88427,R,ugm-3,25.46715,R,ugm-3
04-01-2019,05:00,12.15699,R,ugm-3,19.27994,R,ugm-3,37.92040,R,ugm-3,32.13195,R,ugm-3
04-01-2019,06:00,25.77906,R,ugm-3,41.33444,R,ugm-3,80.86178,R,ugm-3,5.14762,R,ugm-3
04-01-2019,07:00,53.42842,R,ugm-3,42.59801,R,ugm-3,124.52044,R,ugm-3,2.60090,R,ugm-3
04-01-2019,08:00,84.13262,R,ugm-3,46.58949,R,ugm-3,175.59104,R,ugm-3,2.43834,R,ugm-3
04-01-2019,09:00,164.18173,R,ugm-3,60.75477,R,ugm-3,312.49658,R,ugm-3,2.70927,R,ugm-3
04-01-2019,10:00,130.04864,R,ugm-3,58.19534,R,ugm-3,257.60047,R,ugm-3,3.90135,R,ugm-3
04-01-2019,11:00,150.43498,R,ugm-3,59.74049,R,ugm-3,290.40424,R,ugm-3,3.08857,R,ugm-3
04-01-2019,12:00,117.82930,R,ugm-3,65.21576,R,ugm-3,245.88484,R,ugm-3,4.22646,R,ugm-3
04-01-2019,13:00,125.31053,R,ugm-3,70.48132,R,ugm-3,262.62146,R,ugm-3,4.11809,R,ugm-3
04-01-2019,14:00,112.62362,R,ugm-3,67.84198,R,ugm-3,240.52912,R,ugm-3,5.03924,R,ugm-3
04-01-2019,15:00,111.87550,R,ugm-3,71.76258,R,ugm-3,243.30262,R,ugm-3,4.28065,R,ugm-3
04-01-2019,16:00,117.79813,R,ugm-3,75.35334,R,ugm-3,255.97463,R,ugm-3,4.98506,R,ugm-3
04-01-2019,17:00,108.97652,R,ugm-3,70.08679,R,ugm-3,237.18180,R,ugm-3,4.28065,R,ugm-3
04-01-2019,18:00,163.09072,R,ugm-3,81.65083,R,ugm-3,331.71978,R,ugm-3,3.90135,R,ugm-3
04-01-2019,19:00,101.27709,R,ugm-3,64.53416,R,ugm-3,219.82353,R,ugm-3,4.87669,R,ugm-3
04-01-2019,20:00,72.63023,R,ugm-3,64.36969,R,ugm-3,175.73450,R,ugm-3,6.66481,R,ugm-3
04-01-2019,21:00,47.31875,R,ugm-3,50.24455,R,ugm-3,122.79896,R,ugm-3,15.11773,R,ugm-3
04-01-2019,22:00,53.52194,R,ugm-3,51.20548,R,ugm-3,133.27130,R,ugm-3,17.71863,R,ugm-3
04-01-2019,23:00,28.95858,R,ugm-3,37.27217,R,ugm-3,81.67470,R,ugm-3,30.18128,R,ugm-3
04-01-2019,24:00,17.48737,R,ugm-3,30.42565,R,ugm-3,57.23924,R,ugm-3,36.19586,R,ugm-3
05-01-2019,01:00,6.82378,R,ugm-3,25.66297,R,ugm-3,36.12596,R,ugm-3,37.04248,R,ugm-3
05-01-2019,02:00,8.13245,R,ugm-3,26.28458,R,ugm-3,38.75417,R,ugm-3,33.57652,R,ugm-3
05-01-2019,03:00,8.84911,R,ugm-3,20.93280,R,ugm-3,34.50125,R,ugm-3,37.20495,R,ugm-3
05-01-2019,04:00,4.29992,R,ugm-3,24.89763,R,ugm-3,31.49075,R,ugm-3,30.00224,R,ugm-3
05-01-2019,05:00,2.39923,R,ugm-3,23.32013,R,ugm-3,26.99890,R,ugm-3,24.96576,R,ugm-3
05-01-2019,06:00,9.69040,R,ugm-3,36.75011,R,ugm-3,51.60851,R,ugm-3,11.69762,R,ugm-3
05-01-2019,07:00,49.66717,R,ugm-3,56.92779,R,ugm-3,133.08306,R,ugm-3,5.84881,R,ugm-3
05-01-2019,08:00,87.08892,R,ugm-3,60.80979,R,ugm-3,194.34427,R,ugm-3,2.92441,R,ugm-3
05-01-2019,09:00,150.59061,R,ugm-3,73.01441,R,ugm-3,303.91678,R,ugm-3,1.84129,R,ugm-3
05-01-2019,10:00,164.39396,R,ugm-3,71.20274,R,ugm-3,323.26997,R,ugm-3,2.11207,R,ugm-3
05-01-2019,11:00,126.06861,R,ugm-3,73.05475,R,ugm-3,266.35726,R,ugm-3,2.97856,R,ugm-3
05-01-2019,12:00,136.03943,R,ugm-3,67.27571,R,ugm-3,275.86660,R,ugm-3,7.09439,R,ugm-3
05-01-2019,13:00,83.91072,R,ugm-3,69.41025,R,ugm-3,198.07155,R,ugm-3,13.86385,R,ugm-3
05-01-2019,14:00,103.50962,R,ugm-3,69.12948,R,ugm-3,227.84202,R,ugm-3,18.84617,R,ugm-3
05-01-2019,15:00,61.75679,R,ugm-3,60.41982,R,ugm-3,155.11225,R,ugm-3,22.85369,R,ugm-3
05-01-2019,16:00,55.96125,R,ugm-3,66.67798,R,ugm-3,152.48403,R,ugm-3,15.75930,R,ugm-3
05-01-2019,17:00,70.38779,R,ugm-3,75.09263,R,ugm-3,183.01907,R,ugm-3,3.89921,R,ugm-3
05-01-2019,18:00,85.71793,R,ugm-3,70.17536,R,ugm-3,201.60769,R,ugm-3,4.76570,R,ugm-3
05-01-2019,19:00,101.51545,R,ugm-3,79.06829,R,ugm-3,234.72315,R,ugm-3,3.19519,R,ugm-3
05-01-2019,20:00,77.74127,R,ugm-3,75.66829,R,ugm-3,194.86991,R,ugm-3,4.71154,R,ugm-3
05-01-2019,21:00,89.64394,R,ugm-3,77.20105,R,ugm-3,214.65318,R,ugm-3,3.41181,R,ugm-3
05-01-2019,22:00,66.74221,R,ugm-3,67.92368,R,ugm-3,170.26030,R,ugm-3,3.57428,R,ugm-3
05-01-2019,23:00,72.91165,R,ugm-3,61.23556,R,ugm-3,173.03187,R,ugm-3,3.30350,R,ugm-3
05-01-2019,24:00,94.13081,R,ugm-3,61.48093,R,ugm-3,205.81283,R,ugm-3,2.76194,R,ugm-3
06-01-2019,01:00,72.63219,R,ugm-3,57.91448,R,ugm-3,169.28228,R,ugm-3,3.08518,R,ugm-3
06-01-2019,02:00,61.20165,R,ugm-3,48.60420,R,ugm-3,142.44543,R,ugm-3,2.76042,R,ugm-3
06-01-2019,03:00,40.17818,R,ugm-3,43.06759,R,ugm-3,104.67327,R,ugm-3,2.21916,R,ugm-3
06-01-2019,04:00,41.67319,R,ugm-3,41.01404,R,ugm-3,104.91204,R,ugm-3,2.05678,R,ugm-3
06-01-2019,05:00,29.12140,R,ugm-3,42.44820,R,ugm-3,87.10039,R,ugm-3,2.05678,R,ugm-3
06-01-2019,06:00,17.47284,R,ugm-3,39.15476,R,ugm-3,65.94607,R,ugm-3,2.00266,R,ugm-3
06-01-2019,07:00,36.47182,R,ugm-3,39.20011,R,ugm-3,95.12279,R,ugm-3,2.00266,R,ugm-3
06-01-2019,08:00,27.34608,R,ugm-3,37.24342,R,ugm-3,79.17349,R,ugm-3,4.76308,R,ugm-3
06-01-2019,09:00,58.52311,R,ugm-3,44.92761,R,ugm-3,134.66178,R,ugm-3,2.54392,R,ugm-3
06-01-2019,10:00,93.12618,R,ugm-3,50.41476,R,ugm-3,193.20623,R,ugm-3,2.11091,R,ugm-3
06-01-2019,11:00,107.57786,R,ugm-3,63.92686,R,ugm-3,228.87728,R,ugm-3,2.54392,R,ugm-3
06-01-2019,12:00,137.10415,R,ugm-3,67.64781,R,ugm-3,277.87125,R,ugm-3,2.54392,R,ugm-3
06-01-2019,13:00,141.37114,R,ugm-3,63.15854,R,ugm-3,279.92460,R,ugm-3,2.65217,R,ugm-3
06-01-2019,14:00,148.34782,R,ugm-3,68.41042,R,ugm-3,295.87390,R,ugm-3,2.70630,R,ugm-3
06-01-2019,15:00,130.47008,R,ugm-3,67.88741,R,ugm-3,267.93875,R,ugm-3,2.86867,R,ugm-3
06-01-2019,16:00,140.03187,R,ugm-3,67.12216,R,ugm-3,281.83470,R,ugm-3,2.70630,R,ugm-3
06-01-2019,17:00,119.72476,R,ugm-3,68.60506,R,ugm-3,252.18045,R,ugm-3,2.76042,R,ugm-3
06-01-2019,18:00,163.73388,R,ugm-3,72.32417,R,ugm-3,323.37929,R,ugm-3,2.70630,R,ugm-3
06-01-2019,19:00,136.54353,R,ugm-3,63.58893,R,ugm-3,272.95275,R,ugm-3,2.97693,R,ugm-3
06-01-2019,20:00,154.35897,R,ugm-3,65.16250,R,ugm-3,301.84295,R,ugm-3,2.97693,R,ugm-3
06-01-2019,21:00,160.12096,R,ugm-3,65.54379,R,ugm-3,311.05917,R,ugm-3,2.59804,R,ugm-3
06-01-2019,22:00,74.75011,R,ugm-3,53.56874,R,ugm-3,168.18397,R,ugm-3,3.84294,R,ugm-3
06-01-2019,23:00,104.02723,R,ugm-3,60.15487,R,ugm-3,219.66107,R,ugm-3,2.38154,R,ugm-3
06-01-2019,24:00,104.05838,R,ugm-3,55.28412,R,ugm-3,214.83807,R,ugm-3,2.11091,R,ugm-3
07-01-2019,01:00,54.23356,R,ugm-3,47.25947,R,ugm-3,130.41645,R,ugm-3,2.81300,R,ugm-3
07-01-2019,02:00,6.66245,R,ugm-3,29.86848,R,ugm-3,40.08409,R,ugm-3,12.11754,R,ugm-3
07-01-2019,03:00,22.82044,R,ugm-3,44.46154,R,ugm-3,79.45239,R,ugm-3,3.02939,R,ugm-3
07-01-2019,04:00,14.13435,R,ugm-3,45.61164,R,ugm-3,67.28401,R,ugm-3,6.00468,R,ugm-3
07-01-2019,05:00,1.46325,R,ugm-3,25.48121,R,ugm-3,27.72483,R,ugm-3,26.07436,R,ugm-3
07-01-2019,06:00,17.18538,R,ugm-3,26.09280,R,ugm-3,52.44335,R,ugm-3,31.48397,R,ugm-3
07-01-2019,07:00,15.28627,R,ugm-3,41.79346,R,ugm-3,65.23208,R,ugm-3,25.47930,R,ugm-3
07-01-2019,08:00,22.94497,R,ugm-3,44.41375,R,ugm-3,79.59555,R,ugm-3,26.93990,R,ugm-3
07-01-2019,09:00,20.08074,R,ugm-3,41.64764,R,ugm-3,72.43767,R,ugm-3,31.26759,R,ugm-3
07-01-2019,10:00,10.89653,R,ugm-3,27.67104,R,ugm-3,44.37881,R,ugm-3,42.68188,R,ugm-3
07-01-2019,11:00,13.23150,R,ugm-3,23.18414,R,ugm-3,43.47215,R,ugm-3,47.06367,R,ugm-3
07-01-2019,12:00,9.40215,R,ugm-3,17.22138,R,ugm-3,31.63780,R,ugm-3,52.63558,R,ugm-3
07-01-2019,13:00,9.49554,R,ugm-3,17.41220,R,ugm-3,31.97183,R,ugm-3,50.85041,R,ugm-3
07-01-2019,14:00,10.24273,R,ugm-3,19.60687,R,ugm-3,35.31217,R,ugm-3,50.09306,R,ugm-3
07-01-2019,15:00,6.91151,R,ugm-3,16.84101,R,ugm-3,27.43851,R,ugm-3,53.82570,R,ugm-3
07-01-2019,16:00,11.86165,R,ugm-3,19.36737,R,ugm-3,37.55497,R,ugm-3,52.63558,R,ugm-3
07-01-2019,17:00,9.49554,R,ugm-3,20.56167,R,ugm-3,35.12130,R,ugm-3,52.14871,R,ugm-3
07-01-2019,18:00,8.18796,R,ugm-3,16.45855,R,ugm-3,29.01325,R,ugm-3,56.15183,R,ugm-3
07-01-2019,19:00,5.60393,R,ugm-3,14.45578,R,ugm-3,23.04835,R,ugm-3,56.69279,R,ugm-3
07-01-2019,20:00,3.51802,R,ugm-3,11.88011,R,ugm-3,17.27433,R,ugm-3,59.12712,R,ugm-3
07-01-2019,21:00,5.79073,R,ugm-3,10.54271,R,ugm-3,19.42170,R,ugm-3,59.93856,R,ugm-3
07-01-2019,22:00,7.65870,R,ugm-3,13.69113,R,ugm-3,25.43431,R,ugm-3,55.61087,R,ugm-3
07-01-2019,23:00,4.14068,R,ugm-3,8.96889,R,ugm-3,15.31785,R,ugm-3,57.39604,R,ugm-3
07-01-2019,24:00,4.20295,R,ugm-3,6.53518,R,ugm-3,12.97961,R,ugm-3,57.93701,R,ugm-3
08-01-2019,01:00,0.90953,R,ugm-3,4.16658,R,ugm-3,5.56117,R,ugm-3,59.74340,R,ugm-3
08-01-2019,02:00,1.19179,R,ugm-3,4.41079,R,ugm-3,6.23818,R,ugm-3,60.55440,R,ugm-3
08-01-2019,03:00,1.03498,R,ugm-3,3.87751,R,ugm-3,5.46445,R,ugm-3,62.55486,R,ugm-3
08-01-2019,04:00,0.81544,R,ugm-3,3.73055,R,ugm-3,4.98087,R,ugm-3,66.55577,R,ugm-3
08-01-2019,05:00,0.97225,R,ugm-3,2.57131,R,ugm-3,4.06207,R,ugm-3,65.96104,R,ugm-3
08-01-2019,06:00,3.41856,R,ugm-3,9.84597,R,ugm-3,15.08769,R,ugm-3,61.04100,R,ugm-3
08-01-2019,07:00,9.53432,R,ugm-3,20.87566,R,ugm-3,35.49475,R,ugm-3,55.74249,R,ugm-3
08-01-2019,08:00,31.58245,R,ugm-3,36.92607,R,ugm-3,85.35182,R,ugm-3,43.63161,R,ugm-3
08-01-2019,09:00,35.53417,R,ugm-3,46.09961,R,ugm-3,100.58458,R,ugm-3,38.76563,R,ugm-3
08-01-2019,10:00,33.43286,R,ugm-3,34.08882,R,ugm-3,85.35182,R,ugm-3,45.41580,R,ugm-3
08-01-2019,11:00,35.06373,R,ugm-3,34.53802,R,ugm-3,88.30165,R,ugm-3,46.17273,R,ugm-3
08-01-2019,12:00,44.37851,R,ugm-3,45.20826,R,ugm-3,113.25436,R,ugm-3,39.03596,R,ugm-3
08-01-2019,13:00,,,,,,,,,,,,
08-01-2019,14:00,,,,,,,,,,,,
08-01-2019,15:00,,,,,,,,,,42.22588,R,ugm-3
08-01-2019,16:00,66.26982,R,ugm-3,55.50274,R,ugm-3,157.11504,R,ugm-3,28.65521,R,ugm-3
08-01-2019,17:00,94.59053,R,ugm-3,64.49830,R,ugm-3,209.53508,R,ugm-3,20.05865,R,ugm-3
08-01-2019,18:00,97.78954,R,ugm-3,70.03853,R,ugm-3,219.98040,R,ugm-3,17.62566,R,ugm-3
08-01-2019,19:00,42.84173,R,ugm-3,47.56463,R,ugm-3,113.25436,R,ugm-3,30.22313,R,ugm-3
08-01-2019,20:00,37.47867,R,ugm-3,39.00765,R,ugm-3,96.47415,R,ugm-3,33.14272,R,ugm-3
08-01-2019,21:00,24.11808,R,ugm-3,41.40774,R,ugm-3,78.38827,R,ugm-3,26.97915,R,ugm-3
08-01-2019,22:00,43.59444,R,ugm-3,52.16509,R,ugm-3,119.00896,R,ugm-3,18.49072,R,ugm-3
08-01-2019,23:00,24.90215,R,ugm-3,34.35419,R,ugm-3,72.53695,R,ugm-3,37.73837,R,ugm-3
08-01-2019,24:00,12.07472,R,ugm-3,21.13922,R,ugm-3,39.65354,R,ugm-3,46.01053,R,ugm-3
09-01-2019,01:00,3.13742,R,ugm-3,11.68118,R,ugm-3,16.49183,R,ugm-3,55.80792,R,ugm-3
09-01-2019,02:00,1.88245,R,ugm-3,8.38222,R,ugm-3,11.26861,R,ugm-3,58.51180,R,ugm-3
09-01-2019,03:00,0.25099,R,ugm-3,4.49982,R,ugm-3,4.88468,R,ugm-3,62.02683,R,ugm-3
09-01-2019,04:00,2.07070,R,ugm-3,9.06085,R,ugm-3,12.23587,R,ugm-3,55.05084,R,ugm-3
09-01-2019,05:00,1.47459,R,ugm-3,9.15270,R,ugm-3,11.41370,R,ugm-3,52.99590,R,ugm-3
09-01-2019,06:00,16.75382,R,ugm-3,44.67951,R,ugm-3,70.36835,R,ugm-3,21.03613,R,ugm-3
09-01-2019,07:00,38.33927,R,ugm-3,58.97815,R,ugm-3,117.76421,R,ugm-3,15.14169,R,ugm-3
09-01-2019,08:00,86.21630,R,ugm-3,67.05959,R,ugm-3,199.25608,R,ugm-3,11.73481,R,ugm-3
09-01-2019,09:00,136.25815,R,ugm-3,87.68480,R,ugm-3,296.61106,R,ugm-3,6.86784,R,ugm-3
09-01-2019,10:00,114.32759,R,ugm-3,75.12442,R,ugm-3,250.42427,R,ugm-3,11.73481,R,ugm-3
09-01-2019,11:00,101.27592,R,ugm-3,72.40602,R,ugm-3,227.69360,R,ugm-3,18.92711,R,ugm-3
09-01-2019,12:00,89.13410,R,ugm-3,56.49194,R,ugm-3,193.16233,R,ugm-3,24.44301,R,ugm-3
09-01-2019,13:00,73.13326,R,ugm-3,63.90568,R,ugm-3,176.04178,R,ugm-3,29.30998,R,ugm-3
09-01-2019,14:00,80.12971,R,ugm-3,66.09090,R,ugm-3,188.95474,R,ugm-3,29.52629,R,ugm-3
09-01-2019,15:00,64.53673,R,ugm-3,57.25796,R,ugm-3,156.21290,R,ugm-3,35.74519,R,ugm-3
09-01-2019,16:00,101.55829,R,ugm-3,65.78259,R,ugm-3,221.50312,R,ugm-3,25.68679,R,ugm-3
09-01-2019,17:00,138.73671,R,ugm-3,87.46327,R,ugm-3,300.18993,R,ugm-3,11.68073,R,ugm-3
09-01-2019,18:00,151.41189,R,ugm-3,89.30804,R,ugm-3,321.46970,R,ugm-3,6.27298,R,ugm-3
09-01-2019,19:00,133.43447,R,ugm-3,85.58209,R,ugm-3,290.17876,R,ugm-3,7.19230,R,ugm-3
09-01-2019,20:00,56.94417,R,ugm-3,64.83721,R,ugm-3,152.15040,R,ugm-3,18.33226,R,ugm-3
09-01-2019,21:00,122.89274,R,ugm-3,70.21309,R,ugm-3,258.64600,R,ugm-3,8.43608,R,ugm-3
09-01-2019,22:00,83.07888,R,ugm-3,66.98556,R,ugm-3,194.37141,R,ugm-3,10.86957,R,ugm-3
09-01-2019,23:00,63.21901,R,ugm-3,49.21890,R,ugm-3,146.15337,R,ugm-3,10.54510,R,ugm-3
09-01-2019,24:00,26.44845,R,ugm-3,40.30942,R,ugm-3,80.86315,R,ugm-3,7.30046,R,ugm-3
10-01-2019,01:00,14.68841,R,ugm-3,34.06898,R,ugm-3,56.59089,R,ugm-3,8.49189,R,ugm-3
10-01-2019,02:00,10.98492,R,ugm-3,30.55760,R,ugm-3,47.40092,R,ugm-3,5.57111,R,ugm-3
10-01-2019,03:00,2.22837,R,ugm-3,21.78309,R,ugm-3,25.19988,R,ugm-3,18.33599,R,ugm-3
10-01-2019,04:00,4.11150,R,ugm-3,24.36128,R,ugm-3,30.66549,R,ugm-3,10.81769,R,ugm-3
10-01-2019,05:00,3.54656,R,ugm-3,21.69662,R,ugm-3,27.13461,R,ugm-3,17.74102,R,ugm-3
10-01-2019,06:00,19.36485,R,ugm-3,33.67010,R,ugm-3,63.36245,R,ugm-3,13.46803,R,ugm-3
10-01-2019,07:00,58.47118,R,ugm-3,47.80811,R,ugm-3,137.46266,R,ugm-3,5.78747,R,ugm-3
10-01-2019,08:00,129.49655,R,ugm-3,62.67849,R,ugm-3,261.23710,R,ugm-3,2.75851,R,ugm-3
10-01-2019,09:00,189.59977,R,ugm-3,77.07683,R,ugm-3,367.79243,R,ugm-3,2.59625,R,ugm-3
10-01-2019,10:00,202.43644,R,ugm-3,79.06321,R,ugm-3,389.46142,R,ugm-3,3.56984,R,ugm-3
10-01-2019,11:00,148.98694,R,ugm-3,75.30936,R,ugm-3,303.75282,R,ugm-3,5.73338,R,ugm-3
10-01-2019,12:00,90.76685,R,ugm-3,63.87616,R,ugm-3,203.05005,R,ugm-3,12.49444,R,ugm-3
10-01-2019,13:00,78.08711,R,ugm-3,59.47259,R,ugm-3,179.20449,R,ugm-3,21.74356,R,ugm-3
10-01-2019,14:00,81.13150,R,ugm-3,47.16240,R,ugm-3,171.56230,R,ugm-3,24.77252,R,ugm-3
10-01-2019,15:00,48.17673,R,ugm-3,50.58163,R,ugm-3,124.45159,R,ugm-3,23.74484,R,ugm-3
10-01-2019,16:00,78.68344,R,ugm-3,61.17013,R,ugm-3,181.81638,R,ugm-3,18.28190,R,ugm-3
10-01-2019,17:00,107.96610,R,ugm-3,71.45888,R,ugm-3,237.00459,R,ugm-3,11.14222,R,ugm-3
10-01-2019,18:00,91.89673,R,ugm-3,67.27074,R,ugm-3,208.17709,R,ugm-3,9.68184,R,ugm-3
10-01-2019,19:00,101.09268,R,ugm-3,67.00381,R,ugm-3,222.01042,R,ugm-3,11.30449,R,ugm-3
10-01-2019,20:00,49.11830,R,ugm-3,53.92638,R,ugm-3,129.24005,R,ugm-3,17.57875,R,ugm-3
10-01-2019,21:00,32.60953,R,ugm-3,41.60895,R,ugm-3,91.60953,R,ugm-3,20.01273,R,ugm-3
10-01-2019,22:00,36.56410,R,ugm-3,32.83673,R,ugm-3,88.90090,R,ugm-3,20.44544,R,ugm-3
10-01-2019,23:00,43.90831,R,ugm-3,38.26283,R,ugm-3,105.58796,R,ugm-3,16.28063,R,ugm-3
10-01-2019,24:00,13.71546,R,ugm-3,16.79392,R,ugm-3,37.82400,R,ugm-3,27.85556,R,ugm-3
11-01-2019,01:00,8.22596,R,ugm-3,17.57207,R,ugm-3,30.18503,R,ugm-3,25.15626,R,ugm-3
11-01-2019,02:00,6.71891,R,ugm-3,20.31820,R,ugm-3,30.62039,R,ugm-3,26.77924,R,ugm-3
11-01-2019,03:00,2.04079,R,ugm-3,8.23859,R,ugm-3,11.36776,R,ugm-3,40.35821,R,ugm-3
11-01-2019,04:00,1.78962,R,ugm-3,9.78468,R,ugm-3,12.52872,R,ugm-3,39.65492,R,ugm-3
11-01-2019,05:00,2.00939,R,ugm-3,6.10993,R,ugm-3,9.19095,R,ugm-3,45.44356,R,ugm-3
11-01-2019,06:00,8.35155,R,ugm-3,17.23438,R,ugm-3,30.03991,R,ugm-3,37.43684,R,ugm-3
11-01-2019,07:00,30.07812,R,ugm-3,39.79208,R,ugm-3,85.91123,R,ugm-3,23.85787,R,ugm-3
11-01-2019,08:00,59.37133,R,ugm-3,52.92459,R,ugm-3,143.95936,R,ugm-3,14.76916,R,ugm-3
11-01-2019,09:00,104.27920,R,ugm-3,69.01058,R,ugm-3,228.90312,R,ugm-3,11.63139,R,ugm-3
11-01-2019,10:00,,,,,,,,,,16.66264,R,ugm-3
11-01-2019,11:00,,,,,,,,,,,,
11-01-2019,12:00,86.73886,R,ugm-3,65.39787,R,ugm-3,198.39561,R,ugm-3,15.79705,R,ugm-3
11-01-2019,13:00,75.88604,R,ugm-3,62.81825,R,ugm-3,179.17523,R,ugm-3,16.82494,R,ugm-3
11-01-2019,14:00,130.79902,R,ugm-3,73.14122,R,ugm-3,273.69693,R,ugm-3,9.08871,R,ugm-3
11-01-2019,15:00,113.49939,R,ugm-3,69.28843,R,ugm-3,243.31841,R,ugm-3,16.33804,R,ugm-3
11-01-2019,16:00,72.33820,R,ugm-3,66.75862,R,ugm-3,177.67565,R,ugm-3,22.88408,R,ugm-3
11-01-2019,17:00,80.62695,R,ugm-3,71.99592,R,ugm-3,195.62219,R,ugm-3,16.28394,R,ugm-3
11-01-2019,18:00,113.53079,R,ugm-3,81.09178,R,ugm-3,255.16990,R,ugm-3,9.19691,R,ugm-3
11-01-2019,19:00,74.50458,R,ugm-3,72.91808,R,ugm-3,187.15684,R,ugm-3,12.17238,R,ugm-3
11-01-2019,20:00,66.40421,R,ugm-3,71.01994,R,ugm-3,172.83830,R,ugm-3,11.25269,R,ugm-3
11-01-2019,21:00,44.80322,R,ugm-3,57.79924,R,ugm-3,126.49655,R,ugm-3,16.55444,R,ugm-3
11-01-2019,22:00,66.18443,R,ugm-3,66.47121,R,ugm-3,167.95259,R,ugm-3,7.84442,R,ugm-3
11-01-2019,23:00,24.64648,R,ugm-3,43.71851,R,ugm-3,81.50925,R,ugm-3,23.26278,R,ugm-3
11-01-2019,24:00,7.44104,R,ugm-3,22.64547,R,ugm-3,34.05490,R,ugm-3,38.62703,R,ugm-3
12-01-2019,01:00,2.79532,R,ugm-3,12.11425,R,ugm-3,16.40035,R,ugm-3,46.69736,R,ugm-3
12-01-2019,02:00,2.01012,R,ugm-3,8.52873,R,ugm-3,11.61086,R,ugm-3,47.99601,R,ugm-3
12-01-2019,03:00,0.81661,R,ugm-3,4.06953,R,ugm-3,5.32165,R,ugm-3,54.00228,R,ugm-3
12-01-2019,04:00,0.47112,R,ugm-3,3.53494,R,ugm-3,4.25732,R,ugm-3,57.62768,R,ugm-3
12-01-2019,05:00,0.56535,R,ugm-3,3.87425,R,ugm-3,4.74110,R,ugm-3,57.24891,R,ugm-3
12-01-2019,06:00,0.97365,R,ugm-3,6.05415,R,ugm-3,7.54706,R,ugm-3,56.76191,R,ugm-3
12-01-2019,07:00,2.44983,R,ugm-3,10.22506,R,ugm-3,13.98142,R,ugm-3,51.78375,R,ugm-3
12-01-2019,08:00,12.65746,R,ugm-3,19.87559,R,ugm-3,39.28342,R,ugm-3,45.50693,R,ugm-3
12-01-2019,09:00,3.64334,R,ugm-3,13.61993,R,ugm-3,19.20630,R,ugm-3,51.56730,R,ugm-3
12-01-2019,10:00,4.80544,R,ugm-3,13.57970,R,ugm-3,20.94793,R,ugm-3,54.27283,R,ugm-3
12-01-2019,11:00,5.55923,R,ugm-3,13.97201,R,ugm-3,22.49605,R,ugm-3,52.70362,R,ugm-3
12-01-2019,12:00,25.75463,R,ugm-3,29.30449,R,ugm-3,68.79437,R,ugm-3,42.58496,R,ugm-3
12-01-2019,13:00,21.10623,R,ugm-3,27.43351,R,ugm-3,59.79595,R,ugm-3,52.00019,R,ugm-3
12-01-2019,14:00,34.70593,R,ugm-3,34.78565,R,ugm-3,88.00067,R,ugm-3,48.59123,R,ugm-3
12-01-2019,15:00,34.83157,R,ugm-3,31.10976,R,ugm-3,84.51741,R,ugm-3,51.29675,R,ugm-3
12-01-2019,16:00,21.98566,R,ugm-3,22.40830,R,ugm-3,56.11917,R,ugm-3,54.27283,R,ugm-3
12-01-2019,17:00,32.06765,R,ugm-3,28.13928,R,ugm-3,77.30900,R,ugm-3,49.88988,R,ugm-3
12-01-2019,18:00,16.45784,R,ugm-3,24.74010,R,ugm-3,49.97509,R,ugm-3,49.72755,R,ugm-3